Regional Weather Roundup
Issued by NWS

Home | Current Version | Previous Version | Graphics & Text | Print | Product List | Glossary On
Versions: 1 2 3 4 5 6 7 8 9 10 11 12 13 14 15 16 17 18 19 20 21 22 23 24 25 26 27 28 29 30 31 32 33 34 35 36 37 38 39 40 41 42 43 44 45 46 47 48 49 50
000
ASUS43 KLMK 040510
RWRKY
KENTUCKY REGIONAL WEATHER ROUNDUP
NATIONAL WEATHER SERVICE LOUISVILLE KY
1200 AM EST SUN DEC 04 2016

NOTE "FAIR" INDICATES FEW OR NO CLOUDS BELOW 12,000 FEET
WITH NO SIGNIFICANT WEATHER AND/OR OBSTRUCTIONS TO VISIBILITY.

KYZ001>023-026-027-061>063-070>075-040600-
WESTERN AND SOUTH CENTRAL KENTUCKY

CITY           SKY/WX    TMP DP  RH WIND       PRES   REMARKS
PADUCAH        LGT RAIN  39  36  89 E3        30.20F
HENDERSON      CLOUDY    41  28  60 E8        30.23S
OWENSBORO      CLOUDY    41  31  67 E6        30.25F
HOPKINSVILLE   DRIZZLE   39  36  88 E7        30.20F WCI  34
BOWLING GREEN  CLOUDY    42  33  70 E6        30.23F
GLASGOW        CLOUDY    39  33  78 E5        30.23F
$$

KYZ024-025-028>034-038-045-046-053-040600-
NORTH CENTRAL KENTUCKY

CITY           SKY/WX    TMP DP  RH WIND       PRES   REMARKS
LOUISVILLE/SDF CLOUDY    41  27  57 E6        30.26F
LOUISVILLE/LOU CLOUDY    41  29  62 CALM      30.27F
FORT KNOX      CLOUDY    39  29  68 E5        30.23S
$$

KYZ035>037-039>044-047>052-055>060-089>105-040600-
NORTHEAST KENTUCKY

CITY           SKY/WX    TMP DP  RH WIND       PRES   REMARKS
LEXINGTON      CLOUDY    39  28  64 E6        30.26F WCI  35
COVINGTON      CLOUDY    36  29  75 CALM      30.27F
FRANKFORT      CLOUDY    39  29  67 E5        30.25F
$$

KYZ054-064>069-076>088-106>120-040600-
SOUTHEAST KENTUCKY

CITY           SKY/WX    TMP DP  RH WIND       PRES   REMARKS
JACKSON        CLOUDY    37  29  72 CALM      30.25F
LONDON         CLOUDY    39  28  64 VRB3      30.24F
SOMERSET       CLOUDY    37  30  75 CALM      30.26F
MIDDLESBORO    CLOUDY    39  34  80 CALM      30.25F
MONTICELLO     CLOUDY    40  32  73 CALM      30.26F
$$





USA.gov is the U.S. government's official web portal to all federal, state and local government web resources and services.